This demonstration page uses our WeatherBlox Daily Observations layout. Learn more.

Left ArrowRight Arrow

38.83388, -104.82136

Hourly Observations for January 10, 2022

Temp ( °F °C ) Dew Point ( °F °C ) Humidity (%) Winds ( mph kmh ) Pressure ( in mb ) Visibility ( mi km ) Precip ( " mm )
12:54 am 00:54 Clear 23 -5 9 -12.8 55 55 N 7 11 30.71 1040 10 16 0.00 0.00
1:54 am 01:54 Clear 21 -6.1 7 -13.9 54 54 N 6 9 30.70 1040 10 16 0.00 0.00
2:54 am 02:54 Clear 22 -5.6 7 -13.9 52 52 NNE 6 9 30.69 1039 10 16 0.00 0.00
3:54 am 03:54 Clear 22 -5.6 7 -13.9 52 52 N 7 11 30.69 1039 10 16 0.00 0.00
4:54 am 04:54 Clear 20 -6.7 7 -13.9 57 57 NNE 12 19 30.71 1040 10 16 0.00 0.00
5:54 am 05:54 Mostly Clear 21 -6.1 7 -13.9 54 54 NNE 9 15 30.73 1041 10 16 0.00 0.00
6:54 am 06:54 Partly Cloudy 23 -5 6 -14.4 48 48 N 10 17 30.74 1041 10 16 0.00 0.00
7:54 am 07:54 Mostly Sunny 27 -2.8 7 -13.9 43 43 N 8 13 30.72 1040 10 16 0.00 0.00
8:54 am 08:54 Mostly Sunny 38 3.3 15 -9.4 39 39 ENE 5 7 30.67 1039 10 16 0.00 0.00
9:54 am 09:54 Mostly Sunny 45 7.2 5 -15 19 19 E 3 6 30.63 1037 10 16 0.00 0.00
10:54 am 10:54 Mostly Sunny 48 8.9 3 -16.1 15 15 ESE 5 7 30.60 1036 10 16 0.00 0.00
11:54 am 11:54 Mostly Sunny 49 9.4 4 -15.6 16 16 ESE 6 9 30.60 1036 10 16 0.00 0.00
12:54 pm 12:54 Mostly Sunny 51 10.6 4 -15.6 14 14 VRB 6 9 30.56 1035 10 16 0.00 0.00
1:54 pm 13:54 Mostly Sunny 51 10.6 2 -16.7 13 13 SSE 12 19 30.55 1035 10 16 0.00 0.00
2:54 pm 14:54 Mostly Sunny 51 10.6 8 -13.3 17 17 SSE 8 13 30.53 1034 10 16 0.00 0.00
3:54 pm 15:54 Sunny 50 10 8 -13.3 18 18 SSE 10 17 30.53 1034 10 16 0.00 0.00
4:54 pm 16:54 Sunny 43 6.1 12 -11.1 28 28 SSE 8 13 30.56 1035 10 16 0.00 0.00
5:54 pm 17:54 Clear 39 3.9 15 -9.4 38 38 SSE 8 13 30.57 1035 10 16 0.00 0.00
6:54 pm 18:54 Clear 37 2.8 13 -10.6 37 37 E 6 9 30.57 1035 10 16 0.00 0.00
7:54 pm 19:54 Clear 35 1.7 12 -11.1 38 38 E 6 9 30.54 1034 10 16 0.00 0.00
8:54 pm 20:54 Clear 32 0 13 -10.6 45 45 VRB 3 6 30.48 1032 10 16 0.00 0.00
9:54 pm 21:54 Clear 36 2.2 15 -9.4 42 42 SSE 5 7 30.39 1029 10 16 0.00 0.00
10:54 pm 22:54 Clear 26 -3.3 13 -10.6 57 57 NNE 6 9 30.41 1030 10 16 0.00 0.00
11:54 pm 23:54 Clear 23 -5 13 -10.6 65 65 VRB 3 6 30.39 1029 10 16 0.00 0.00

Powered by AerisWeather